User: anonymous   Login
Location: Carrer del Canonge
(41.4901°N, 2.2931°E)
Time: 03:33:02
(UTC+00:00)
Language:

Ariane Rocket - Orbit

View from above orbital plane
View from above orbital plane
View from above satellite
View from above satellite

Ground track
Ground track

The orbit data is extracted from the following two-line orbital elements,

1 23561U 95021B   20329.14407639 +.00000061 +00000-0 +35194-4 0  9997
2 23561 098.7055 010.6330 0007756 135.3092 287.9578 14.37993837341529
Epoch (UTC): 24 November 2020 03:27:28
Eccentricity: 0.0007756
inclination: 98.7055°
perigee height: 759 km
apogee height: 770 km
right ascension of ascending node: 10.6330°
argument of perigee: 135.3092°
revolutions per day: 14.37993837
mean anomaly at epoch: 287.9578°
orbit number at epoch: 34152

The dashed part of the orbit path shows where the satellite is in the earth's shadow,  

DLR